Regional Weather Roundup
Issued by NWS

Home | Current Version | Previous Version | Graphics & Text | Print | Product List | Glossary On
Versions: 1 2 3 4 5 6 7 8 9 10 11 12 13 14 15 16 17 18 19 20 21 22 23 24 25 26 27 28 29 30 31 32 33 34 35 36 37 38 39 40 41 42 43 44 45 46 47 48 49 50
000
ASUS45 KABQ 240310
RWRNM
WEATHER ROUNDUP FOR NEW MEXICO
NATIONAL WEATHER SERVICE ALBUQUERQUE NM
900 PM MDT TUE SEP 23 2014

NOTE: "FAIR" MEANS FEW OR NO CLOUDS BELOW 12,000 FEET AGL WITH NO
       SIGNIFICANT WEATHER OR OBSTRUCTIONS TO VISION.

      THIS PRODUCT IS RELEASED AS TWO VERSIONS.  ONE VERSION NEAR
      THE TOP OF THE HOUR CONTAINING PRELIMINARY DATA FROM ALBUQUERQUE
      AND OTHER STATIONS.  A FINAL VERSION WITH ADDITIONAL DATA IS
      ISSUED ABOUT 10 MINUTES AFTER THE HOUR.

NMZ501-503-504-510>518-240400-
NORTHWEST PLATEAU/NORTHCENTRAL MOUNTAINS

CITY           SKY/WX    TMP DP  RH WIND       PRES   REMARKS
FARMINGTON     CLEAR     70  33  25 SW3       30.17R
LOS ALAMOS     CLEAR     68  32  26 W10       30.31R
SANTA FE       CLEAR     67  46  47 NW3       30.23R
TAOS           PTCLDY    61  36  39 E6        30.29R
ANGEL FIRE     FAIR      49  38  66 CALM      30.38R

$$
NMZ402-403-502-505>509-240400-
WESTCENTRAL MOUNTAINS/SOUTHWEST MOUNTAINS

CITY           SKY/WX    TMP DP  RH WIND       PRES   REMARKS
GALLUP         CLEAR     71  41  33 NE12      30.26R
GRANTS         CLEAR     61  52  72 S3        30.28R
SILVER CITY    PTCLDY    70  63  78 S3        30.23R

$$
NMZ407-409-411-412-240400-
SOUTHERN DESERTS

CITY           SKY/WX    TMP DP  RH WIND       PRES   REMARKS
LORDSBURG      FAIR      72  63  73 MISG      30.13R
DEMING         PTCLDY    74  63  68 SE5       30.13R
LAS CRUCES     CLEAR     73  62  68 SE5       30.15R
HOLLOMAN AFB   PTCLDY    72  60  67 S5        30.12R
ALAMOGORDO     PTCLDY    68  64  88 S3        30.14R
T OR C         CLEAR     72  63  73 W5        30.16R

$$
NMZ519>523-240400-
CENTRAL VALLEYS/CENTRAL HIGHLANDS

CITY           SKY/WX    TMP DP  RH WIND       PRES   REMARKS
ALBUQUERQUE    PTCLDY    74  55  51 S8        30.18R
DOUBLE EAGLE   CLEAR     63  52  67 SW5       30.22R
MORIARTY ARPT  FAIR      62  49  60 W7        30.23S
CLINES CORNERS CLEAR     59  48  67 W7        30.27R
BELEN          FAIR      70  58  64 S6        30.18R
SOCORRO        FAIR      68  62  81 N5        30.16R

$$
NMZ524>526-539-540-240400-
SOUTHCENTRAL MOUNTAINS

CITY           SKY/WX    TMP DP  RH WIND       PRES   REMARKS
RUIDOSO        NOT AVBL

$$
NMZ527>531-240400-
NORTHEAST HIGHLANDS/NORTHEAST PLAINS

CITY           SKY/WX    TMP DP  RH WIND       PRES   REMARKS
LAS VEGAS      MOCLDY    62  58  86 S10       30.26R
RATON          CLEAR     62  48  60 N7        30.20R
CLAYTON        PTCLDY    67  54  63 S12       30.13R

$$
NMZ532>537-240400-
EASTCENTRAL PLAINS

CITY           SKY/WX    TMP DP  RH WIND       PRES   REMARKS
TUCUMCARI      CLEAR     69  59  70 S6        30.09R
CANNON AFB     NOT AVBL
CLOVIS AIRPORT   N/A     64  57  77 S8        30.17S

$$
NMZ028-029-538-240400-
SOUTHEAST PLAINS

CITY           SKY/WX    TMP DP  RH WIND       PRES   REMARKS
ROSWELL        CLEAR     69  64  84 S7        30.12R
CARLSBAD       CLEAR     70  70 100 S8        30.09R
HOBBS          CLEAR     68  64  88 SE5       30.15R


$$


USA.gov is the U.S. government's official web portal to all federal, state and local government web resources and services.